This demonstration page uses our WeatherBlox Daily Observations layout. Learn more.

Left ArrowRight Arrow

34.74481, -87.66753

Hourly Observations for April 27, 2017

Temp ( °F °C ) Dew Point ( °F °C ) Humidity (%) Winds ( mph kmh ) Pressure ( in mb ) Visibility ( mi km ) Precip ( " mm )
12:00 am 00:00 Cloudy with Strong Thunderstorms 66 18.9 62 16.7 87 87 WNW 9 15 29.68 1005 3 5 0.07 1.78
12:18 am 00:18 Cloudy with Light Rain 65 18.3 62 16.7 90 90 Calm 29.65 1004 7 11 0.12 3.05
12:31 am 00:31 Cloudy with Nearby Thunderstorms 65 18.3 62 16.7 90 90 N 3 6 29.65 1004 7 11 0.15 3.81
12:53 am 00:53 Cloudy with Nearby Thunderstorms 65 18.3 62 16.7 90 90 WNW 9 15 29.65 1004 4 6 0.25 6.35
12:56 am 00:56 Cloudy with Strong Thunderstorms 64 17.8 62 16.7 93 93 WNW 7 11 29.68 1005 3 5 0.01 0.25
1:07 am 01:07 Cloudy with Strong Thunderstorms 64 17.8 62 16.7 93 93 W 14 22 29.68 1005 2 3 0.13 3.30
1:15 am 01:15 Cloudy with Nearby Thunderstorms 64 17.8 62 16.7 93 93 Calm 29.65 1004 3 5 0.19 4.83
1:53 am 01:53 Cloudy with Nearby Thunderstorms 63 17.2 59 15 87 87 E 7 11 29.60 1003 7 11 0.33 8.38
2:22 am 02:22 Cloudy with Light Rain 63 17.2 60 15.6 90 90 SE 5 7 29.62 1003 10 16 0.04 1.02
2:31 am 02:31 Mostly Cloudy with Nearby Thunderstorms 63 17.2 61 16.1 93 93 SSE 3 6 29.62 1003 10 16 0.04 1.02
2:48 am 02:48 Cloudy 63 17 61 16 94 94 SSE 6 9 29.62 1003 10 16 0.04 1.02
2:53 am 02:53 Cloudy 64 17.8 61 16.1 90 90 S 7 11 29.62 1003 10 16 0.04 1.02
3:53 am 03:53 Cloudy 64 17.8 60 15.6 87 87 SSW 8 13 29.64 1004 10 16 0.00 0.00
4:53 am 04:53 Partly Cloudy 62 16.7 58 14.4 86 86 WSW 6 9 29.65 1004 10 16 0.00 0.00
5:33 am 05:33 Mostly Cloudy 62 16.7 58 14.4 86 86 WSW 7 11 29.68 1005 10 16 0.00 0.00
5:48 am 05:48 Cloudy 63 17 57 14 83 83 SW 7 11 29.68 1005 10 16 0.00 0.00
5:53 am 05:53 Cloudy 62 16.7 58 14.4 86 86 SW 7 11 29.67 1005 10 16 0.00 0.00
6:03 am 06:03 Cloudy 62 16.7 58 14.4 86 86 SW 7 11 29.71 1006 10 16 0.00 0.00
6:22 am 06:22 Cloudy 62 16.7 58 14.4 86 86 WSW 7 11 29.71 1006 10 16 0.00 0.00
6:39 am 06:39 Partly Cloudy 61 16.1 58 14.4 90 90 SW 6 9 29.71 1006 10 16 0.00 0.00
6:53 am 06:53 Mostly Sunny 62 16.7 58 14.4 86 86 SW 8 13 29.71 1006 10 16 0.00 0.00
7:53 am 07:53 Sunny 65 18.3 60 15.6 84 84 W 13 20 29.72 1007 10 16 0.00 0.00
8:53 am 08:53 Mostly Cloudy 61 16.1 56 13.3 84 84 NW 15 24 29.76 1008 10 16 0.00 0.00
9:53 am 09:53 Cloudy 63 17.2 55 12.8 76 76 WNW 13 20 29.78 1009 10 16 0.00 0.00
10:01 am 10:01 Mostly Cloudy 65 18.3 56 13.3 73 73 WNW 16 26 29.80 1009 10 16 0.00 0.00
10:53 am 10:53 Mostly Cloudy 64 17.8 56 13.3 75 75 W 15 24 29.81 1009 10 16 0.00 0.00
11:53 am 11:53 Cloudy 67 19.4 58 14.4 73 73 W 12 19 29.81 1010 10 16 0.00 0.00
12:38 pm 12:38 Cloudy 68 20 57 13.9 68 68 W 14 22 29.83 1010 10 16 0.00 0.00
12:53 pm 12:53 Cloudy 68 20 58 14.4 70 70 WNW 8 13 29.81 1009 10 16 0.00 0.00
1:25 pm 13:25 Cloudy 68 20 56 13.3 65 65 W 7 11 29.83 1010 10 16 0.00 0.00
1:36 pm 13:36 Cloudy 67 19.4 56 13.3 68 68 W 10 17 29.83 1010 10 16 0.00 0.00
1:53 pm 13:53 Mostly Cloudy 67 19.4 56 13.3 68 68 WNW 9 15 29.82 1010 10 16 0.00 0.00
2:07 pm 14:07 Mostly Cloudy 68 20 56 13.3 65 65 WNW 10 17 29.83 1010 10 16 0.00 0.00
2:53 pm 14:53 Partly Cloudy 70 21.1 56 13.3 61 61 undefined N/A 29.82 1010 10 16 0.00 0.00
3:53 pm 15:53 Mostly Sunny 70 21.1 55 12.8 59 59 WNW 9 15 29.82 1010 10 16 0.00 0.00
4:53 pm 16:53 Sunny 71 21.7 54 12.2 55 55 W 6 9 29.83 1010 10 16 0.00 0.00
5:53 pm 17:53 Sunny 70 21.1 50 10 49 49 Calm 29.82 1010 10 16 0.00 0.00
6:53 pm 18:53 Sunny 70 21.1 51 10.6 51 51 Calm 29.83 1010 10 16 0.00 0.00
7:53 pm 19:53 Clear 61 16.1 55 12.8 81 81 E 3 6 29.83 1010 10 16 0.00 0.00
8:53 pm 20:53 Clear 60 15.6 54 12.2 80 80 Calm 29.84 1011 10 16 0.00 0.00
9:53 pm 21:53 Clear 57 13.9 53 11.7 87 87 Calm 29.87 1011 10 16 0.00 0.00
10:53 pm 22:53 Clear 55 12.8 52 11.1 90 90 Calm 29.87 1012 10 16 0.00 0.00
11:53 pm 23:53 Clear with Mist and Fog 54 12.2 52 11.1 93 93 ESE 3 6 29.87 1012 6 10 0.00 0.00

Powered by AerisWeather